sat.trackr.live / text

‹ back to catalog

QIANFAN-78

NORAD 63164 · 2025-046F

PAYLOAD ACTIVE UNKNOWN

§ Identity

Operator
Country
PRC
Launch date
2025-03-11
Launch site
WSC
Launch vehicle
Mass (kg)
RCS (m²)

External: N2YO · Heavens-Above · Gunter

§ Orbital elements

Epoch: 2026-05-25T03:29:33.811008Z

Period
106.59 min
Inclination
88.9691°
Eccentricity
0.0015447
Mean motion
13.51007836 rev/d
Perigee alt
1,057.0 km
Apogee alt
1,080.1 km
Semi-major
7,446.7 km
B*
4.6054e-5
RAAN
303.0502°
Arg perigee
25.1484°
Mean anomaly
335.0416°
Rev number
6,949

§ Raw data

QIANFAN-781 63164U 25046F   26145.14553022  .00000042  00000+0  46054-4 0  99952 63164  88.9691 303.0502 0015447  25.1484 335.0416 13.51007836 69495

JSON: /api/v1/satellites/63164 · /tle

For live sub-satellite position, see the globe view (requires WebGL).

§ Visibility from observer

Set your observer location to see the next 7 days of passes ≥ 10°. The values pass through the URL so the page stays shareable.

No JS? Fill the form by hand. The geolocation button needs JavaScript.